Preview of NWS' New Version of Forecast
This preview is not operational and should not be used for support decisions.

Regional Weather Roundup (RWR)

Issued by National Weather Service (NWS)

                            
000
ASCA42 TJSJ 180210
RWRPR 
PUERTO RICO/U.S. VIRGIN ISLANDS HOURLY WEATHER ROUNDUP
NATIONAL WEATHER SERVICE SAN JUAN PR
1000 PM AST FRI MAY 17 2019

PRZ001>002-007>008-010-180300-
PUERTO RICO
  
CITY           SKY/WX    TMP DP  RH WIND       PRES   REMARKS
SAN JUAN LMM   PTCLDY    81  73  78 E12       30.00S                  
AGUADILLA      CLEAR     79  73  83 E15       30.00S                  
CEIBA          PTCLDY    82  73  74 E6        30.01S                  
$$

VIZ001>002-180300-
U.S. VIRGIN ISLANDS
  
CITY           SKY/WX    TMP DP  RH WIND       PRES   REMARKS
CHARLOTTE AMA  CLEAR     81  72  74 E10       29.99S                  
CHRISTIANSTED  CLEAR     79  72  78 NE8       30.00S                  
$$

HOURLY WEATHER ROUNDUP FOR THE NEWS MEDIA
  
CITY           SKY/WX    TMP DP  RH WIND       PRES   REMARKS
ORLANDO        FAIR      74  62  66 SE8       30.03S                  
NEW YORK       RAIN      68  61  78 W9        29.80R                  
NEWARK         MOCLDY    71  61  70 W10       29.79R                  
CHICAGO        CLOUDY    45  39  79 NE15      29.92F                  
HARTFORD       FAIR      53  53 100 CALM      29.74R                  
BOSTON         FAIR      62  58  86 SW10      29.71R                  
DALLAS         MOCLDY    83  69  62 SE10G20   29.74R                  
PHILADELPHIA   MOCLDY    67  65  93 CALM      29.81R                  
LOS ANGELES    PTCLDY    62  49  62 W18       29.95S                  
WASHINGTON DC  MOCLDY    74  60  61 N7        29.87R